• en France
  • Liste des pays
  • À 7 jours
  • Température de l'eau
  • Carte satellitaire
  • Carte météo
  • Widgets météo
  • user-avatar
    Se connecter

    Météo par heure à Sidi-bel-Abbès

    Ce jour, 18 Septembre, Mardi

    Heure Température Précipitation Vent Pression Humidité
    00:00 +26°C° 0 mm 3 m/s 720 mmHg 46%
    01:00 +26°C° 0.1 mm 3 m/s 720 mmHg 48%
    02:00 +26°C° 0.1 mm 3 m/s 720 mmHg 50%
    03:00 +25°C° 0.1 mm 3 m/s 720 mmHg 52%
    04:00 +25°C° 0 mm 3 m/s 720 mmHg 54%
    05:00 +25°C° 0 mm 3 m/s 720 mmHg 56%
    06:00 +25°C° 0 mm 3 m/s 721 mmHg 57%
    07:00 +26°C° 0 mm 3 m/s 721 mmHg 53%
    08:00 +28°C° 0 mm 3 m/s 721 mmHg 49%
    09:00 +29°C° 0 mm 3 m/s 722 mmHg 45%
    10:00 +30°C° 0 mm 3 m/s 722 mmHg 43%
    11:00 +31°C° 0 mm 3 m/s 722 mmHg 41%
    12:00 +32°C° 0 mm 4 m/s 722 mmHg 42%
    13:00 +32°C° 0 mm 4 m/s 722 mmHg 41%
    14:00 +33°C° 0 mm 3 m/s 721 mmHg 40%
    15:00 +33°C° 0 mm 3 m/s 721 mmHg 39%
    16:00 +31°C° 0 mm 3 m/s 721 mmHg 42%
    17:00 +30°C° 0 mm 3 m/s 721 mmHg 46%
    18:00 +29°C° 0 mm 3 m/s 721 mmHg 49%
    19:00 +29°C° 0 mm 2 m/s 721 mmHg 52%
    20:00 +28°C° 0 mm 2 m/s 722 mmHg 55%
    21:00 +28°C° 0 mm 1 m/s 722 mmHg 58%
    22:00 +27°C° 0 mm 1 m/s 722 mmHg 60%
    23:00 +27°C° 0 mm 1 m/s 722 mmHg 61%

    Demain, 19 Septembre, Mercredi

    Heure Température Précipitation Vent Pression Humidité
    00:00 +27°C° 0 mm 1 m/s 722 mmHg 63%
    01:00 +26°C° 0 mm 1 m/s 722 mmHg 64%
    02:00 +26°C° 0 mm 1 m/s 722 mmHg 66%
    03:00 +26°C° 0 mm 1 m/s 722 mmHg 68%
    04:00 +25°C° 0 mm 1 m/s 722 mmHg 69%
    05:00 +25°C° 0 mm 1 m/s 722 mmHg 70%
    06:00 +25°C° 0 mm 1 m/s 722 mmHg 71%
    07:00 +26°C° 0 mm 1 m/s 722 mmHg 64%
    08:00 +27°C° 0 mm 1 m/s 723 mmHg 58%
    09:00 +28°C° 0 mm 1 m/s 723 mmHg 51%
    10:00 +30°C° 0 mm 2 m/s 723 mmHg 46%
    11:00 +31°C° 0 mm 2 m/s 723 mmHg 42%
    12:00 +33°C° 0 mm 3 m/s 724 mmHg 37%
    13:00 +33°C° 0.1 mm 3 m/s 723 mmHg 37%
    14:00 +33°C° 0.1 mm 4 m/s 723 mmHg 37%
    15:00 +33°C° 0.1 mm 4 m/s 723 mmHg 37%
    16:00 +32°C° 0 mm 4 m/s 723 mmHg 40%
    17:00 +30°C° 0 mm 4 m/s 723 mmHg 43%
    18:00 +29°C° 0 mm 4 m/s 723 mmHg 46%
    19:00 +29°C° 0.2 mm 3 m/s 723 mmHg 48%
    20:00 +28°C° 0.2 mm 3 m/s 723 mmHg 50%
    21:00 +28°C° 0.2 mm 2 m/s 724 mmHg 53%
    22:00 +27°C° 0 mm 2 m/s 724 mmHg 54%
    23:00 +27°C° 0 mm 1 m/s 724 mmHg 55%

    Après-demain, 20 Septembre, Jeudi

    Heure Température Précipitation Vent Pression Humidité
    00:00 +27°C° 0 mm 1 m/s 724 mmHg 56%
    01:00 +26°C° 0 mm 1 m/s 723 mmHg 58%
    02:00 +26°C° 0 mm 1 m/s 723 mmHg 60%
    03:00 +25°C° 0 mm 1 m/s 722 mmHg 62%
    04:00 +25°C° 0 mm 1 m/s 722 mmHg 64%
    05:00 +25°C° 0 mm 1 m/s 722 mmHg 65%
    06:00 +24°C° 0 mm 1 m/s 722 mmHg 67%
    07:00 +25°C° 0 mm 1 m/s 723 mmHg 61%
    08:00 +27°C° 0 mm 1 m/s 723 mmHg 55%
    09:00 +28°C° 0 mm 1 m/s 723 mmHg 49%
    10:00 +29°C° 0 mm 2 m/s 723 mmHg 44%
    11:00 +30°C° 0 mm 3 m/s 723 mmHg 39%
    12:00 +31°C° 0 mm 3 m/s 723 mmHg 35%
    13:00 +32°C° 0 mm 4 m/s 723 mmHg 34%
    14:00 +32°C° 0 mm 4 m/s 722 mmHg 33%
    15:00 +33°C° 0 mm 5 m/s 722 mmHg 33%
    16:00 +32°C° 0 mm 4 m/s 722 mmHg 37%
    17:00 +30°C° 0 mm 4 m/s 722 mmHg 40%
    18:00 +29°C° 0 mm 4 m/s 722 mmHg 44%
    19:00 +28°C° 0 mm 3 m/s 722 mmHg 47%
    20:00 +28°C° 0 mm 2 m/s 722 mmHg 50%
    21:00 +27°C° 0 mm 2 m/s 722 mmHg 53%
    22:00 +26°C° 0 mm 1 m/s 722 mmHg 56%
    23:00 +26°C° 0 mm 1 m/s 722 mmHg 58%

    21 Septembre, Vendredi

    Heure Température Précipitation Vent Pression Humidité
    00:00 +25°C° 0 mm 1 m/s 722 mmHg 61%
    01:00 +25°C° 0 mm 1 m/s 721 mmHg 63%
    02:00 +25°C° 0 mm 1 m/s 721 mmHg 65%
    03:00 +24°C° 0 mm 1 m/s 721 mmHg 67%
    04:00 +24°C° 0 mm 1 m/s 721 mmHg 68%
    05:00 +23°C° 0 mm 1 m/s 721 mmHg 69%
    06:00 +21°C° 0 mm 0 m/s 721 mmHg 71%
    07:00 +24°C° 0 mm 1 m/s 722 mmHg 62%
    08:00 +25°C° 0 mm 1 m/s 722 mmHg 54%
    09:00 +27°C° 0 mm 1 m/s 723 mmHg 46%
    10:00 +28°C° 0 mm 2 m/s 723 mmHg 41%
    11:00 +29°C° 0 mm 2 m/s 723 mmHg 35%
    12:00 +30°C° 0 mm 3 m/s 723 mmHg 30%
    13:00 +30°C° 0 mm 3 m/s 722 mmHg 30%
    14:00 +32°C° 0 mm 4 m/s 722 mmHg 29%
    15:00 +32°C° 0 mm 4 m/s 722 mmHg 29%
    16:00 +30°C° 0 mm 4 m/s 722 mmHg 32%
    17:00 +29°C° 0 mm 3 m/s 722 mmHg 34%
    18:00 +29°C° 0 mm 3 m/s 722 mmHg 37%
    19:00 +28°C° 0 mm 2 m/s 722 mmHg 40%
    20:00 +27°C° 0 mm 2 m/s 723 mmHg 42%
    21:00 +27°C° 0 mm 1 m/s 724 mmHg 45%
    22:00 +26°C° 0 mm 1 m/s 723 mmHg 47%
    23:00 +24°C° 0 mm 0 m/s 723 mmHg 49%

    22 Septembre, Samedi

    Heure Température Précipitation Vent Pression Humidité
    00:00 +23°C° 0 mm 0 m/s 723 mmHg 51%
    01:00 +23°C° 0 mm 0 m/s 723 mmHg 51%
    02:00 +22°C° 0 mm 0 m/s 723 mmHg 52%
    03:00 +22°C° 0 mm 0 m/s 722 mmHg 53%
    04:00 +24°C° 0 mm 1 m/s 723 mmHg 54%
    05:00 +23°C° 0 mm 1 m/s 723 mmHg 54%
    06:00 +23°C° 0 mm 1 m/s 723 mmHg 55%
    07:00 +25°C° 0 mm 1 m/s 724 mmHg 48%
    08:00 +26°C° 0 mm 1 m/s 724 mmHg 41%
    09:00 +28°C° 0 mm 1 m/s 725 mmHg 35%
    10:00 +29°C° 0 mm 2 m/s 725 mmHg 30%
    11:00 +30°C° 0 mm 2 m/s 725 mmHg 25%
    12:00 +33°C° 0 mm 3 m/s 725 mmHg 21%
    13:00 +33°C° 0 mm 3 m/s 725 mmHg 20%
    14:00 +34°C° 0 mm 4 m/s 724 mmHg 19%
    15:00 +34°C° 0 mm 4 m/s 724 mmHg 19%
    16:00 +33°C° 0 mm 4 m/s 724 mmHg 22%
    17:00 +32°C° 0 mm 4 m/s 724 mmHg 25%
    18:00 +30°C° 0 mm 4 m/s 724 mmHg 28%
    19:00 +29°C° 0 mm 4 m/s 724 mmHg 32%
    20:00 +28°C° 0 mm 3 m/s 725 mmHg 36%
    21:00 +27°C° 0 mm 2 m/s 725 mmHg 40%
    22:00 +27°C° 0 mm 2 m/s 725 mmHg 41%
    23:00 +27°C° 0 mm 1 m/s 725 mmHg 42%

    23 Septembre, Dimanche

    Heure Température Précipitation Vent Pression Humidité
    00:00 +26°C° 0 mm 1 m/s 724 mmHg 44%
    01:00 +26°C° 0 mm 1 m/s 724 mmHg 43%
    02:00 +25°C° 0 mm 1 m/s 724 mmHg 42%
    03:00 +25°C° 0 mm 1 m/s 724 mmHg 42%
    04:00 +25°C° 0 mm 1 m/s 724 mmHg 41%
    05:00 +25°C° 0 mm 1 m/s 724 mmHg 41%
    06:00 +24°C° 0 mm 1 m/s 724 mmHg 41%
    07:00 +26°C° 0 mm 1 m/s 724 mmHg 36%
    08:00 +28°C° 0 mm 1 m/s 725 mmHg 31%
    09:00 +30°C° 0 mm 1 m/s 725 mmHg 27%
    10:00 +31°C° 0 mm 1 m/s 725 mmHg 24%
    11:00 +32°C° 0 mm 1 m/s 725 mmHg 22%
    12:00 +33°C° 0 mm 1 m/s 725 mmHg 19%
    13:00 +34°C° 0 mm 2 m/s 724 mmHg 19%
    14:00 +35°C° 0 mm 2 m/s 724 mmHg 19%
    15:00 +35°C° 0 mm 3 m/s 723 mmHg 19%
    16:00 +34°C° 0 mm 3 m/s 723 mmHg 21%
    17:00 +33°C° 0 mm 3 m/s 723 mmHg 24%
    18:00 +31°C° 0 mm 3 m/s 723 mmHg 26%
    19:00 +31°C° 0 mm 2 m/s 723 mmHg 29%
    20:00 +30°C° 0 mm 1 m/s 724 mmHg 31%
    21:00 +29°C° 0 mm 1 m/s 724 mmHg 34%
    22:00 +28°C° 0 mm 1 m/s 724 mmHg 35%
    23:00 +26°C° 0 mm 0 m/s 723 mmHg 37%
    Voir plus